Change the Weather History Date:

Saturday, December 8, 2012

  Actual Average Record
Temperature  
Mean Temperature 32 °F -  
Max Temperature 37 °F 43 °F 62 °F (2000)
Min Temperature 28 °F 34 °F 26 °F (2003)
Degree Days  
Heating Degree Days 32    
Moisture  
Dew Point 31 °F    
Average Humidity 88    
Maximum Humidity 100    
Minimum Humidity 75    
Precipitation  
Precipitation 0.00 in - - ()
Sea Level Pressure  
Sea Level Pressure 30.14 in    
Wind  
Wind Speed 6 mph ()    
Max Wind Speed 12 mph    
Max Gust Speed -    
Visibility 4.6 miles    
Events      
Averages and records for this station are not official NWS values.
T = Trace of Precipitation, MM = Missing Value Source: Averaged Metar Reports

Daily Weather History Graph

Daily Weather History Graph

Search for Another Location

Airport or City:

Trip Planner

Search our weather history database for the weather conditions in past years. The results will help you decide how hot, cold, wet, or windy it might be!

Date:

Astronomy

Dec. 08, 2012 Rise Set
Actual Time 8:31 AM CET 4:52 PM CET
Civil Twilight 7:54 AM CET 5:29 PM CET
Nautical Twilight 7:13 AM CET 6:09 PM CET
Astronomical Twilight 6:35 AM CET 6:48 PM CET
Moon 2:14 AM CET (12/8) 1:35 PM CET (12/8)
Length of Visible Light 9h 35m
Length of Day
8h 21m
Waning Crescent, 31% of the Moon is Illuminated
Dec 8
Waning Crescent
Dec 13
New
Dec 20
First Quarter
Dec 28
Full
Jan 5
Last Quarter

Hourly Weather History & Observations

Time (CET) Temp. Windchill Dew Point Humidity Pressure Visibility Wind Dir Wind Speed Gust Speed Precip Events Conditions
12:00 AM 35.6 °F 32.8 °F 33.8 °F 93% 29.80 in 6.2 mi North 3.5 mph - N/A   Mostly Cloudy
12:30 AM 35.6 °F 30.7 °F 33.8 °F 93% 29.80 in 6.2 mi Variable 5.8 mph - N/A   Mostly Cloudy
1:00 AM 35.6 °F 27.5 °F 33.8 °F 93% 29.83 in 6.2 mi North 11.5 mph - N/A   Mostly Cloudy
1:30 AM 35.6 °F 29.2 °F 33.8 °F 93% 29.86 in 6.2 mi North 8.1 mph - N/A   Overcast
2:00 AM 35.6 °F 29.2 °F 33.8 °F 93% 29.86 in 6.2 mi NNE 8.1 mph - N/A   Overcast
2:30 AM 33.8 °F 27.7 °F 33.8 °F 100% 29.89 in 5.0 mi NNE 6.9 mph - N/A   Mostly Cloudy
3:00 AM 33.8 °F 30.8 °F 32.0 °F 93% 29.92 in 6.2 mi Variable 3.5 mph - N/A   Overcast
3:30 AM 33.8 °F 28.6 °F 32.0 °F 93% 29.92 in 6.2 mi North 5.8 mph - N/A   Overcast
4:00 AM 33.8 °F 28.6 °F 32.0 °F 93% 29.95 in 5.6 mi North 5.8 mph - N/A   Overcast
4:30 AM 33.8 °F 27.7 °F 33.8 °F 100% 29.98 in 4.3 mi North 6.9 mph - N/A   Overcast
5:00 AM 33.8 °F 27.7 °F 33.8 °F 100% 29.98 in 3.7 mi North 6.9 mph - N/A   Overcast
5:30 AM 33.8 °F 28.6 °F 33.8 °F 100% 30.01 in 3.7 mi Variable 5.8 mph - N/A   Overcast
6:00 AM 35.6 °F 30.7 °F 33.8 °F 93% 30.01 in 3.7 mi Variable 5.8 mph - N/A   Overcast
6:30 AM 35.6 °F 30.7 °F 33.8 °F 93% 30.04 in 3.7 mi Variable 5.8 mph - N/A   Overcast
7:00 AM 35.6 °F 29.9 °F 33.8 °F 93% 30.06 in 3.1 mi North 6.9 mph - N/A   Mostly Cloudy
7:30 AM 35.6 °F 29.9 °F 33.8 °F 93% 30.06 in 3.1 mi North 6.9 mph - N/A   Mostly Cloudy
8:00 AM 35.6 °F 29.2 °F 33.8 °F 93% 30.06 in 2.8 mi North 8.1 mph - N/A   Mostly Cloudy
8:30 AM 35.6 °F 29.9 °F 33.8 °F 93% 30.09 in 2.8 mi North 6.9 mph - N/A   Mostly Cloudy
9:00 AM 35.6 °F 30.7 °F 33.8 °F 93% 30.12 in 2.2 mi NNW 5.8 mph - N/A   Mostly Cloudy
9:30 AM 35.6 °F 31.7 °F 33.8 °F 93% 30.12 in 2.2 mi NW 4.6 mph - N/A   Mostly Cloudy
10:00 AM 35.6 °F 29.9 °F 33.8 °F 93% 30.15 in 2.2 mi NNW 6.9 mph - N/A   Mostly Cloudy
10:30 AM 35.6 °F 31.7 °F 33.8 °F 93% 30.15 in 2.2 mi NNW 4.6 mph - N/A   Mostly Cloudy
11:00 AM 35.6 °F 30.7 °F 33.8 °F 93% 30.18 in 2.2 mi NW 5.8 mph - N/A   Mostly Cloudy
11:08 AM 35.6 °F 30.7 °F 33.8 °F 93% 30.18 in 2.2 mi NNW 5.8 mph - N/A   Mostly Cloudy
11:30 AM 35.6 °F 29.2 °F 33.8 °F 93% 30.18 in 2.2 mi NNW 8.1 mph - N/A   Mostly Cloudy
12:00 PM 35.6 °F 29.9 °F 33.8 °F 93% 30.21 in 2.8 mi NNW 6.9 mph - N/A   Mostly Cloudy
12:30 PM 37.4 °F 31.4 °F 33.8 °F 87% 30.21 in 3.7 mi NNW 8.1 mph - N/A   Mostly Cloudy
1:00 PM 37.4 °F 30.3 °F 32.0 °F 81% 30.21 in 5.0 mi NNW 10.4 mph - N/A   Mostly Cloudy
1:30 PM 35.6 °F 28.0 °F 30.2 °F 81% 30.21 in 6.2 mi North 10.4 mph - N/A   Mostly Cloudy
2:00 PM 37.4 °F 30.3 °F 30.2 °F 75% 30.24 in 6.2 mi Variable 10.4 mph - N/A   Mostly Cloudy
2:30 PM 35.6 °F 28.0 °F 28.4 °F 75% 30.24 in 6.2 mi North 10.4 mph - N/A   Mostly Cloudy
3:00 PM 35.6 °F 28.0 °F 28.4 °F 75% 30.24 in 6.2 mi Variable 10.4 mph - N/A   Mostly Cloudy
3:30 PM 35.6 °F 29.2 °F 28.4 °F 75% 30.24 in 6.2 mi North 8.1 mph - N/A   Mostly Cloudy
4:00 PM 33.8 °F 27.0 °F 28.4 °F 81% 30.27 in 6.2 mi NNE 8.1 mph - N/A   Mostly Cloudy
4:30 PM 33.8 °F 26.4 °F 26.6 °F 75% 30.27 in 6.2 mi NNE 9.2 mph - N/A   Mostly Cloudy
5:00 PM 33.8 °F 29.6 °F 26.6 °F 75% 30.27 in 6.2 mi Variable 4.6 mph - N/A   Mostly Cloudy
5:30 PM 33.8 °F 30.8 °F 26.6 °F 75% 30.30 in 6.2 mi Variable 3.5 mph - N/A   Mostly Cloudy
6:00 PM 33.8 °F 29.6 °F 26.6 °F 75% 30.30 in 6.2 mi NNW 4.6 mph - N/A   Mostly Cloudy
6:30 PM 33.8 °F 28.6 °F 26.6 °F 75% 30.30 in 6.2 mi North 5.8 mph - N/A   Mostly Cloudy
7:00 PM 33.8 °F 30.8 °F 26.6 °F 75% 30.33 in 6.2 mi Variable 3.5 mph - N/A   Mostly Cloudy
7:30 PM 32.0 °F 28.7 °F 26.6 °F 80% 30.33 in 6.2 mi Variable 3.5 mph - N/A   Scattered Clouds
8:00 PM 30.2 °F - 26.6 °F 86% 30.33 in 6.2 mi Calm Calm - N/A   Partly Cloudy
8:30 PM 30.2 °F - 26.6 °F 86% 30.33 in 6.2 mi Calm Calm - N/A   Partly Cloudy
9:00 PM 30.2 °F - 26.6 °F 86% 30.33 in 5.0 mi Variable 2.3 mph - N/A   Unknown
9:30 PM 30.2 °F - 26.6 °F 86% 30.33 in 4.3 mi NW 2.3 mph - N/A   Unknown
10:00 PM 30.2 °F 26.7 °F 26.6 °F 86% 30.36 in 3.7 mi West 3.5 mph - N/A   Unknown
10:30 PM 28.4 °F 24.6 °F 26.6 °F 93% 30.36 in 2.8 mi West 3.5 mph - N/A   Mist
11:00 PM 28.4 °F - 26.6 °F 93% 30.33 in 2.8 mi West 2.3 mph - N/A   Mist
11:30 PM 28.4 °F - 26.6 °F 93% 30.36 in 2.8 mi SW 2.3 mph - N/A   Mist